Baker, OR

5:51 AM PST on December 16, 2017 (GMT -0800)
Baker City Municipal

Weather History for KBKE - August, 2013

Change the Weather History Date:

Tuesday, August 27, 2013

  Actual Average Record
Temperature  
Mean Temperature 66 °F 62 °F  
Max Temperature 91 °F 82 °F 101 °F (2017)
Min Temperature 41 °F 43 °F 33 °F (1952)
Degree Days  
Heating Degree Days 0 4  
Month to date heating degree days 11 62  
Since 1 June heating degree days 228 358  
Since 1 July heating degree days 32 132  
Cooling Degree Days 1 1  
Month to date cooling degree days 82 62  
Year to date cooling degree days 215 155  
Since 1 June cooling degree days 211 153  
Growing Degree Days 16 (Base 50)    
Moisture  
Dew Point 44 °F    
Average Humidity 55    
Maximum Humidity 96    
Minimum Humidity 13    
Precipitation  
Precipitation 0.00 in 0.03 in 0.31 in (1996)
Month to date precipitation 0.47 0.61  
Year to date precipitation 6.15 6.97  
Sea Level Pressure  
Sea Level Pressure 29.89 in    
Wind  
Wind Speed 4 mph (South)    
Max Wind Speed 18 mph    
Max Gust Speed 25 mph    
Visibility 10 miles    
Events      
T = Trace of Precipitation, MM = Missing Value Source: NWS Daily Summary

Daily Weather History Graph

Daily Weather History Graph

Search for Another Location

Airport or City:

Trip Planner

Search our weather history database for the weather conditions in past years. The results will help you decide how hot, cold, wet, or windy it might be!

Date:

Astronomy

Aug. 27, 2013 Rise Set
Actual Time 6:07 AM PDT 7:36 PM PDT
Civil Twilight 5:37 AM PDT 8:06 PM PDT
Nautical Twilight 5:00 AM PDT 8:43 PM PDT
Astronomical Twilight 4:20 AM PDT 9:23 PM PDT
Moon 11:13 PM PDT (8/27) 1:29 PM PDT (8/27)
Length of Visible Light 14h 29m
Length of Day
13h 28m
Waning Gibbous, 56% of the Moon is Illuminated
Aug 27
Waning Gibbous
Aug 28
Last Quarter
Sep 5
New
Sep 12
First Quarter
Sep 19
Full

Hourly Weather History & Observations

Time (PDT) Temp. Dew Point Humidity Pressure Visibility Wind Dir Wind Speed Gust Speed Precip Events Conditions
12:53 AM 54.0 °F 46.0 °F 75% 29.95 in 10.0 mi South 5.8 mph - N/A   Clear
1:53 AM 52.0 °F 46.0 °F 80% 29.95 in 10.0 mi South 5.8 mph - N/A   Clear
2:53 AM 51.1 °F 45.0 °F 80% 29.95 in 10.0 mi Calm Calm - N/A   Clear
3:53 AM 48.9 °F 45.0 °F 86% 29.96 in 10.0 mi South 3.5 mph - N/A   Clear
4:53 AM 44.1 °F 42.1 °F 93% 29.97 in 10.0 mi Calm Calm - N/A   Clear
5:53 AM 41.0 °F 39.0 °F 93% 29.98 in 10.0 mi Calm Calm - N/A   Clear
6:53 AM 43.0 °F 41.0 °F 93% 29.99 in 10.0 mi Calm Calm - N/A   Clear
7:53 AM 52.0 °F 46.9 °F 83% 29.99 in 10.0 mi Calm Calm - N/A   Clear
8:53 AM 60.1 °F 46.9 °F 62% 29.99 in 10.0 mi Calm Calm - N/A   Clear
9:53 AM 66.0 °F 48.0 °F 52% 29.97 in 10.0 mi WNW 3.5 mph - N/A   Clear
10:53 AM 71.1 °F 48.9 °F 45% 29.96 in 10.0 mi Calm Calm - N/A   Clear
11:53 AM 75.0 °F 48.9 °F 40% 29.93 in 10.0 mi Calm Calm - N/A   Clear
12:53 PM 78.1 °F 50.0 °F 37% 29.90 in 10.0 mi Calm Calm - N/A   Clear
1:53 PM 84.9 °F 48.0 °F 28% 29.86 in 10.0 mi East 8.1 mph - N/A   Clear
2:53 PM 88.0 °F 42.1 °F 20% 29.82 in 10.0 mi NE 4.6 mph - N/A   Clear
3:53 PM 90.0 °F 36.0 °F 15% 29.79 in 10.0 mi South 12.7 mph - N/A   Clear
4:53 PM 89.1 °F 32.0 °F 13% 29.78 in 10.0 mi SSE 9.2 mph - N/A   Clear
5:53 PM 87.1 °F 35.1 °F 16% 29.78 in 10.0 mi South 8.1 mph - N/A   Clear
6:53 PM 80.1 °F 39.9 °F 24% 29.78 in 10.0 mi SE 5.8 mph - N/A   Clear
7:53 PM 73.0 °F 39.9 °F 30% 29.78 in 9.0 mi Calm Calm - N/A   Clear
8:53 PM 64.9 °F 42.1 °F 43% 29.79 in 10.0 mi West 5.8 mph - N/A   Clear
9:53 PM 64.0 °F 48.9 °F 58% 29.79 in 10.0 mi WSW 6.9 mph - N/A   Clear
10:53 PM 60.1 °F 46.9 °F 62% 29.80 in 10.0 mi West 4.6 mph - N/A   Clear
11:53 PM 55.9 °F 46.0 °F 69% 29.80 in 10.0 mi Calm Calm - N/A   Clear